Location: Betzi
(47.2343°N, 9.5260°E)
Time: 17:04:38
(UTC+00:00)

Cosmos 1624 Rocket - Pass Details

Date: 27 May 2022
Orbit: 757 x 782 km, 74.0° (Epoch: 06 July)

Event Time Altitude Azimuth Distance (km) Brightness Sun altitude
Exits shadow 02:46:21 - 195° (SSW) 2,913 6.5 -7.2°
Reaches altitude 10° 02:47:51 10° 194° (SSW) 2,328 6.0 -7.0°
Maximum altitude 02:53:08 76° 110° (ESE) 808 4.2 -6.3°
Drops below altitude 10° 02:58:26 10° 25° (NNE) 2,332 7.8 -5.6°
Sets 03:00:49 0° 24° (NNE) 3,260 8.6 -5.3°
